This is the latest recevied weather packets stored in our database for station/object KF0WJA. If no packets are shown the sender has not sent any weather packets the latest 10 day(s).
| Time | Temp. | Humidity | Pressure | Rain* | Wind** | Luminosity | Snow |
|---|---|---|---|---|---|---|---|
| 1787450160 | 24.44° C | 75% | 1020.6 hPa | 0 mm | - | 0 W/m² | - |
| 1787449860 | 24.44° C | 74% | 1020.4 hPa | 0 mm | - | 0 W/m² | - |
| 1787449555 | 25° C | 73% | 1020.5 hPa | 0 mm | - | 0 W/m² | - |
| 1787449250 | 25° C | 72% | 1020.4 hPa | 0 mm | - | 0 W/m² | - |
| 1787448945 | 25.56° C | 71% | 1020.1 hPa | 0 mm | - | 0 W/m² | - |
| 1787448640 | 25.56° C | 70% | 1020.3 hPa | 0 mm | - | 0 W/m² | - |
| 1787448337 | 26.11° C | 69% | 1020.1 hPa | 0 mm | - | 0 W/m² | - |
| 1787448032 | 26.11° C | 69% | 1020 hPa | 0 mm | - | 0 W/m² | - |
| 1787447731 | 26.67° C | 69% | 1019.9 hPa | 0 mm | - | 0 W/m² | - |
| 1787447426 | 26.67° C | 69% | 1020 hPa | 0 mm | - | 1 W/m² | - |
| 1787447123 | 27.22° C | 69% | 1019.7 hPa | 0 mm | - | 6 W/m² | - |
| 1787446820 | 27.22° C | 69% | 1019.7 hPa | 0 mm | - | 9 W/m² | - |
| 1787446519 | 27.78° C | 68% | 1019.8 hPa | 0 mm | - | 14 W/m² | - |
| 1787446215 | 27.78° C | 67% | 1019.5 hPa | 0 mm | - | 18 W/m² | - |
| 1787445911 | 28.33° C | 66% | 1019.7 hPa | 0 mm | - | 23 W/m² | - |
| 1787445607 | 28.33° C | 64% | 1019.6 hPa | 0 mm | - | 26 W/m² | - |
| 1787445303 | 28.33° C | 63% | 1019.8 hPa | 0 mm | - | 34 W/m² | - |
| 1787444997 | 28.89° C | 61% | 1019.9 hPa | 0 mm | - | 48 W/m² | - |
| 1787444694 | 29.44° C | 60% | 1019.8 hPa | 0 mm | - | 58 W/m² | - |
| 1787444390 | 29.44° C | 59% | 1019.6 hPa | 0 mm | - | 68 W/m² | - |
| 1787444085 | 29.44° C | 59% | 1019.8 hPa | 0 mm | - | 77 W/m² | - |
| 1787443784 | 30° C | 59% | 1019.7 hPa | 0 mm | - | 90 W/m² | - |
| 1787443479 | 30° C | 59% | 1019.8 hPa | 0 mm | - | 100 W/m² | - |
| 1787443178 | 30° C | 58% | 1019.9 hPa | 0 mm | - | 124 W/m² | - |
| 1787442873 | 30° C | 58% | 1019.9 hPa | 0 mm | - | 135 W/m² | - |
* Rain latest hour (hover to see other rain measurements)
** Current wind speed in m/s (hover to see current wind gust speed)